Wind_Speed
23 22 20 19 17 15 16 20 25 27 28 29 32 31 29 28 25 22 22 23 24 25 25 25 25 24 27 30 33 37 42 36
20 22 22 22 20 19 18 17 19 21 24 26 29 31 31 31 29 27 25 26 28 29 30 29 29 29 29 29 29 31 38 38
16 17 17 18 19 20 19 19 21 22 24 25 27 29 31 32 32 32 30 31 34 36 35 35 35 34 33 31 32 33 34 37
11 14 18 20 21 22 21 21 23 24 25 27 29 31 33 35 35 35 35 36 37 39 40 40 40 41 39 38 37 37 35 36
15 17 16 15 16 18 19 19 21 24 27 30 33 34 34 37 39 39 39 39 39 39 41 42 42 44 43 41 41 41 40 38
12 8 11 8 12 13 12 14 17 19 23 27 32 33 35 36 37 39 39 40 43 45 46 45 46 48 48 45 43 44 44 43
11 10 9 9 12 12 7 9 15 16 18 19 21 29 36 39 40 41 42 45 48 48 47 48 50 52 52 48 46 46 45 46
11 8 7 12 12 12 13 16 19 23 26 27 27 27 26 27 31 37 43 46 49 50 52 47 47 50 51 48 48 48 47 50
11 9 10 12 13 15 16 19 23 26 29 31 31 31 29 31 34 34 37 40 40 43 51 49 53 50 49 50 52 51 50 51
14 12 12 13 15 17 19 23 25 28 31 32 31 30 30 30 33 35 38 39 40 43 44 53 53 52 51 53 57 58 58 59
17 16 14 16 18 19 21 23 26 30 34 33 31 30 29 30 30 31 32 33 34 36 40 42 49 56 60 62 62 63 61 60
19 19 18 19 21 22 23 25 28 30 33 32 29 28 27 26 25 23 22 22 23 25 27 31 37 42 47 51 54 52 52 53
18 18 23 24 24 25 26 27 29 31 33 29 24 23 22 20 18 15 13 15 17 19 20 23 26 30 34 40 45 49 51 52
26 25 23 25 28 27 28 29 31 33 31 25 22 18 16 14 12 12 16 21 25 29 30 25 22 22 24 30 36 39 45 48
28 23 25 29 29 28 28 29 32 31 25 21 17 13 10 11 14 15 17 22 25 29 34 38 37 31 26 23 25 30 34 39
27 27 26 28 28 28 27 30 29 24 20 17 11 6 6 9 12 15 17 20 23 28 31 36 38 40 35 29 24 20 23 28
24 23 25 27 26 27 28 28 24 19 16 12 4 5 6 7 9 11 15 18 21 24 26 28 33 41 42 42 36 33 25 17
23 21 24 24 26 28 28 24 19 15 12 5 4 6 4 6 8 11 14 17 20 23 23 24 26 28 33 39 40 36 33 24
22 22 23 24 26 26 22 19 15 12 6 1 6 4 3 6 9 11 14 16 18 21 22 23 25 26 27 28 32 39 36 34
Wind_Direction
298 302 300 298 294 282 272 266 261 257 255 257 254 257 257 264 266 265 260 258 259 259 258 261 264 267 275 278 274 265 268 265
299 299 298 301 301 300 293 281 264 256 255 257 258 258 261 260 262 261 259 258 257 260 260 261 262 267 272 276 279 268 264 264
289 293 301 303 301 296 290 286 282 279 273 267 264 262 262 262 265 266 263 261 263 265 266 266 268 270 269 272 278 277 267 261
282 287 295 303 303 293 284 281 279 277 274 270 267 266 265 265 264 264 270 271 268 268 269 271 274 277 271 269 276 277 271 262
297 304 307 304 320 319 293 291 296 290 282 278 273 268 270 268 267 267 266 269 269 269 268 271 272 273 269 270 274 279 276 268
288 294 312 306 325 313 316 306 310 310 299 283 281 279 270 269 268 268 270 269 271 271 271 267 272 273 271 271 272 277 278 272
267 302 312 312 313 309 300 309 317 326 329 323 304 285 275 275 275 272 272 272 271 269 267 266 268 268 265 268 270 273 275 274
268 276 290 307 299 291 302 315 323 323 325 319 310 302 296 287 277 276 275 271 266 267 269 268 269 265 267 268 268 272 273 273
256 253 282 296 285 288 298 311 316 319 320 316 312 306 299 293 288 284 281 280 279 271 266 267 263 267 269 268 269 271 270 271
250 252 284 281 282 284 292 303 308 316 321 320 314 309 304 298 292 289 288 286 281 278 275 265 264 267 271 270 268 268 268 269
246 250 277 281 281 286 296 302 311 318 322 322 319 317 314 309 302 297 293 288 283 276 272 271 265 263 264 265 267 267 267 264
247 252 265 276 278 285 298 302 310 316 320 322 323 323 326 324 317 312 306 304 301 297 288 278 272 267 266 265 266 266 262 260
250 262 269 273 280 285 293 297 307 313 317 318 319 325 334 339 334 336 347 354 354 341 320 302 290 284 278 273 270 265 262 259
260 262 270 274 274 284 291 297 307 311 313 315 315 318 329 356 12 28 37 34 28 24 17 2 341 318 297 282 274 267 261 260
273 268 268 272 274 278 288 299 306 310 311 312 311 310 326 357 8 17 27 29 27 24 22 20 14 1 345 325 306 292 279 268
271 267 270 270 277 286 291 297 305 307 310 307 301 315 354 24 20 22 30 31 30 30 27 24 19 19 18 12 358 332 297 279
265 264 264 271 277 284 293 301 303 303 306 295 285 331 342 357 13 20 26 26 26 24 21 22 22 21 20 21 15 8 354 307
262 260 265 270 277 287 295 298 298 299 289 258 322 310 337 23 29 29 30 30 29 27 20 18 18 20 26 26 21 25 24 15
259 255 261 269 281 289 291 289 288 286 249 187 301 312 6 37 38 35 34 31 30 26 20 18 17 19 21 21 29 26 28 39
Height
3098 3097 3097 3096 3096 3096 3096 3096 3097 3097 3097 3097 3096 3096 3096 3096 3096 3096 3096 3097 3097 3097 3097 3097 3096 3096 3096 3095 3095 3094 3093 3094
3093 3092 3090 3089 3088 3088 3088 3089 3089 3089 3089 3089 3089 3089 3089 3089 3089 3089 3089 3090 3090 3091 3091 3090 3090 3090 3089 3088 3086 3086 3085 3087
3090 3088 3086 3085 3084 3083 3083 3082 3082 3082 3082 3082 3081 3081 3081 3081 3081 3081 3081 3082 3082 3082 3082 3082 3082 3081 3081 3080 3079 3077 3076 3079
3086 3084 3083 3082 3080 3078 3076 3075 3074 3074 3074 3074 3074 3074 3073 3073 3073 3072 3072 3072 3072 3072 3072 3072 3072 3072 3072 3071 3070 3069 3067 3069
3083 3081 3078 3076 3075 3072 3071 3071 3069 3068 3067 3066 3065 3065 3065 3064 3063 3063 3063 3062 3062 3062 3061 3061 3061 3061 3062 3060 3059 3059 3058 3059
3079 3077 3075 3073 3071 3070 3068 3066 3064 3061 3059 3057 3056 3055 3055 3054 3053 3053 3053 3052 3051 3050 3049 3049 3049 3048 3049 3048 3047 3047 3046 3047
3075 3074 3072 3069 3068 3066 3064 3063 3061 3058 3055 3052 3049 3046 3045 3044 3043 3042 3040 3040 3039 3038 3037 3036 3036 3035 3036 3035 3035 3035 3034 3033
3071 3070 3068 3066 3064 3063 3061 3059 3057 3055 3051 3049 3044 3041 3038 3035 3032 3031 3029 3028 3027 3026 3024 3022 3022 3022 3020 3021 3022 3021 3021 3021
3067 3066 3064 3062 3061 3060 3058 3056 3053 3050 3046 3043 3038 3034 3029 3026 3024 3021 3018 3016 3014 3011 3010 3010 3009 3007 3007 3008 3008 3008 3008 3008
3062 3061 3060 3058 3057 3056 3054 3052 3049 3045 3041 3037 3031 3027 3022 3019 3015 3011 3008 3004 3002 3000 2997 2996 2996 2995 2994 2993 2992 2992 2993 2993
3058 3056 3055 3054 3053 3052 3051 3048 3044 3040 3036 3031 3025 3020 3016 3011 3007 3002 2998 2995 2992 2990 2987 2984 2982 2981 2980 2978 2977 2976 2976 2977
3052 3051 3051 3050 3048 3047 3045 3042 3039 3036 3032 3026 3021 3016 3011 3006 3001 2996 2991 2987 2983 2979 2976 2973 2970 2968 2965 2962 2961 2959 2959 2959
3047 3046 3045 3045 3043 3042 3040 3037 3035 3031 3027 3022 3018 3014 3009 3003 2997 2992 2987 2983 2978 2973 2968 2965 2961 2957 2952 2948 2945 2943 2941 2941
3041 3039 3039 3039 3038 3036 3034 3032 3029 3025 3022 3018 3014 3010 3007 3001 2997 2991 2986 2981 2976 2970 2964 2958 2952 2947 2942 2937 2932 2929 2927 2926
3035 3034 3033 3033 3032 3031 3029 3026 3023 3020 3017 3014 3010 3008 3004 3000 2995 2990 2985 2979 2974 2969 2963 2956 2949 2941 2934 2928 2922 2918 2914 2912
3028 3028 3028 3027 3026 3025 3023 3021 3019 3015 3013 3010 3008 3005 3001 2998 2994 2989 2984 2979 2974 2969 2964 2959 2952 2944 2934 2925 2919 2912 2905 2902
3021 3021 3021 3021 3020 3019 3017 3015 3013 3011 3009 3007 3005 3003 3000 2996 2993 2989 2984 2979 2974 2970 2965 2959 2953 2946 2938 2929 2920 2910 2901 2896
3015 3015 3015 3014 3014 3013 3011 3009 3008 3007 3006 3005 3004 3001 2998 2995 2992 2988 2984 2979 2975 2971 2967 2962 2957 2950 2942 2935 2928 2918 2908 2899
3009 3009 3009 3009 3008 3006 3005 3004 3004 3003 3003 3003 3002 3000 2997 2994 2991 2988 2984 2980 2976 2972 2968 2963 2958 2952 2946 2940 2933 2927 2919 2909